Weather History for Greensboro, NC

Change the Weather History Date:

Friday, December 28, 2012

  Actual Average Record
Temperature  
Mean Temperature 34 °F 39 °F  
Max Temperature 42 °F 48 °F 73 °F (1984)
Min Temperature 26 °F 30 °F 5 °F (1925)
Degree Days  
Heating Degree Days 31 26  
Month to date heating degree days 477 657  
Since 1 July heating degree days 1256 1337  
Cooling Degree Days 0 0  
Month to date cooling degree days 0 0  
Year to date cooling degree days 1623 1483  
Moisture  
Dew Point 25 °F    
Average Humidity 66    
Maximum Humidity 81    
Minimum Humidity 51    
Precipitation  
Precipitation 0.00 in 0.09 in 3.06 in (1958)
Month to date precipitation 2.60 2.72  
Year to date precipitation 36.66 41.94  
Snow  
Snow 0.00 in 0.00 in T in (1967)
Month to date snowfall 0.0 0.6  
Since 1 July snowfall 0.0 0.7  
Snow Depth 0.00 in    
Sea Level Pressure  
Sea Level Pressure 30.08 in    
Wind  
Wind Speed 2 mph (ESE)    
Max Wind Speed 9 mph    
Max Gust Speed 14 mph    
Visibility 10 miles    
Events      
T = Trace of Precipitation, MM = Missing Value Source: NWS Daily Summary

Daily Weather History Graph

Daily Weather History Graph

Search for Another Location

Airport:

Trip Planner

Search our weather history database for the weather conditions in past years. The results will help you decide how hot, cold, wet, or windy it might be!

Date:

Astronomy

Dec. 28, 2012 Rise Set
Actual Time 7:29 AM EST 5:13 PM EST
Civil Twilight 7:01 AM EST 5:42 PM EST
Nautical Twilight 6:29 AM EST 6:14 PM EST
Astronomical Twilight 5:57 AM EST 6:45 PM EST
Moon 5:46 PM EST (12/28) 7:24 AM EST (12/28)
Length of Visible Light 10h 40m
Length of Day
9h 43m
Full, 100% of the Moon is Illuminated
Dec 28
Full
Jan 4
Last Quarter
Jan 11
New
Jan 18
First Quarter
Jan 26
Full

Hourly Weather History & Observations

Time (EST) Temp. Windchill Dew Point Humidity Pressure Visibility Wind Dir Wind Speed Gust Speed Precip Events Conditions
12:54 AM 30.9 °F 26.2 °F 23.0 °F 72% 30.07 in 10.0 mi NNW 4.6 mph - N/A   Clear
1:54 AM 30.0 °F 25.2 °F 23.0 °F 75% 30.07 in 10.0 mi NNE 4.6 mph - N/A   Clear
2:54 AM 30.0 °F 24.1 °F 24.1 °F 79% 30.08 in 10.0 mi North 5.8 mph - N/A   Clear
3:54 AM 30.0 °F 23.2 °F 23.0 °F 75% 30.07 in 10.0 mi NNE 6.9 mph - N/A   Clear
4:54 AM 28.9 °F 23.9 °F 21.9 °F 75% 30.07 in 10.0 mi NNE 4.6 mph - N/A   Clear
5:54 AM 26.1 °F - 21.0 °F 81% 30.11 in 10.0 mi Calm Calm - N/A   Clear
6:54 AM 28.0 °F - 21.9 °F 78% 30.13 in 10.0 mi Calm Calm - N/A   Clear
7:54 AM 28.0 °F - 23.0 °F 81% 30.13 in 10.0 mi Calm Calm - N/A   Clear
8:54 AM 30.9 °F - 25.0 °F 79% 30.14 in 9.0 mi Calm Calm - N/A   Clear
9:17 AM - - - N/A% - - North - - N/A   Unknown
9:54 AM 35.1 °F - 24.1 °F 64% 30.19 in 10.0 mi Calm Calm - N/A   Scattered Clouds
10:54 AM 36.0 °F - 24.1 °F 62% 30.18 in 10.0 mi Calm Calm - N/A   Mostly Cloudy
11:54 AM 37.9 °F - 25.0 °F 60% 30.14 in 10.0 mi Calm Calm - N/A   Mostly Cloudy
12:54 PM 39.0 °F - 24.1 °F 55% 30.11 in 10.0 mi Calm Calm - N/A   Mostly Cloudy
1:54 PM 39.0 °F 36.8 °F 24.1 °F 55% 30.08 in 10.0 mi SW 3.5 mph - N/A   Mostly Cloudy
2:54 PM 41.0 °F 37.1 °F 25.0 °F 53% 30.06 in 10.0 mi SSE 5.8 mph - N/A   Clear
3:54 PM 41.0 °F - 24.1 °F 51% 30.06 in 10.0 mi Calm Calm - N/A   Clear
4:54 PM 39.0 °F 35.7 °F 25.0 °F 57% 30.04 in 10.0 mi SSE 4.6 mph - N/A   Partly Cloudy
5:54 PM 37.9 °F 34.4 °F 26.1 °F 62% 30.04 in 10.0 mi SSW 4.6 mph - N/A   Partly Cloudy
6:54 PM 37.9 °F - 26.1 °F 62% 30.06 in 10.0 mi Calm Calm - N/A   Clear
7:54 PM 37.0 °F 34.5 °F 28.0 °F 70% 30.06 in 10.0 mi South 3.5 mph - N/A   Clear
8:54 PM 37.9 °F - 27.0 °F 65% 30.04 in 10.0 mi Calm Calm - N/A   Clear
9:54 PM 37.0 °F - 28.0 °F 70% 30.02 in 10.0 mi Calm Calm - N/A   Clear
10:54 PM 37.9 °F - 28.9 °F 70% 30.02 in 10.0 mi Calm Calm - N/A   Clear
11:54 PM 37.0 °F 34.5 °F 28.0 °F 70% 29.97 in 10.0 mi SE 3.5 mph - N/A   Partly Cloudy